This is the latest recevied weather packets stored in our database for station/object DO1YM-13. If no packets are shown the sender has not sent any weather packets the latest 10 day(s).
| Time | Temp. | Humidity | Pressure | Rain* | Wind** | Luminosity | Snow |
|---|---|---|---|---|---|---|---|
| 1787390748 | 18.33° C | 61% | 1007.8 hPa | 0 mm | - | 500 W/m² | - |
| 1787390447 | 18.33° C | 60% | 1007.8 hPa | 0 mm | - | 122 W/m² | - |
| 1787390147 | 18.89° C | 63% | 1007.8 hPa | 0 mm | - | 169 W/m² | - |
| 1787389847 | 18.33° C | 61% | 1007.8 hPa | 0 mm | - | 490 W/m² | - |
| 1787389547 | 17.78° C | 68% | 1007.8 hPa | 0 mm | - | 644 W/m² | - |
| 1787389248 | 17.22° C | 70% | 1007.8 hPa | 0 mm | - | 315 W/m² | - |
| 1787388947 | 17.22° C | 71% | 1007.8 hPa | 0 mm | - | 287 W/m² | - |
| 1787388647 | 17.22° C | 72% | 1007.8 hPa | 0 mm | - | 199 W/m² | - |
| 1787388347 | 17.22° C | 72% | 1007.8 hPa | 0 mm | - | 192 W/m² | - |
| 1787388047 | 16.67° C | 75% | 1007.5 hPa | 0 mm | - | 159 W/m² | - |
| 1787387748 | 16.67° C | 79% | 1007.5 hPa | 0 mm | - | 134 W/m² | - |
| 1787387449 | 16.67° C | 78% | 1007.5 hPa | 0 mm | - | 117 W/m² | - |
| 1787387148 | 16.67° C | 78% | 1007.5 hPa | 0 mm | - | 147 W/m² | - |
| 1787386848 | 17.22° C | 77% | 1007.1 hPa | 0 mm | - | 148 W/m² | - |
| 1787386548 | 17.22° C | 76% | 1007.1 hPa | 0 mm | - | 188 W/m² | - |
| 1787386248 | 16.67° C | 78% | 1007.1 hPa | 0 mm | - | 233 W/m² | - |
| 1787385947 | 16.67° C | 80% | 1007.1 hPa | 0 mm | - | 222 W/m² | - |
| 1787385647 | 17.22° C | 79% | 1006.8 hPa | 0 mm | - | 135 W/m² | - |
| 1787385347 | 17.22° C | 77% | 1006.8 hPa | 0 mm | - | 230 W/m² | - |
| 1787385047 | 16.67° C | 78% | 1006.8 hPa | 0 mm | - | 249 W/m² | - |
| 1787384748 | 16.11° C | 83% | 1006.8 hPa | 0 mm | - | 209 W/m² | - |
| 1787384447 | 16.11° C | 85% | 1006.8 hPa | 0 mm | - | 119 W/m² | - |
| 1787384160 | 16.11° C | 85% | 1006.4 hPa | 0 mm | - | 107 W/m² | - |
| 1787383847 | 15.56° C | 86% | 1006.8 hPa | 0 mm | - | 93 W/m² | - |
| 1787383548 | 15.56° C | 87% | 1006.4 hPa | 0 mm | - | 117 W/m² | - |
* Rain latest hour (hover to see other rain measurements)
** Current wind speed in m/s (hover to see current wind gust speed)